一网星座-0643星 (ONEWEB-0643)

导读 | 星芒AI

ONEWEB-0643 是 OneWeb 卫星通信星座中的一颗低轨通信卫星,旨在为全球提供高速互联网服务。该卫星由阿丽亚娜集团制造,于2022年发射,运行在约1200公里高的近极地轨道。作为 OneWeb 计划部署的数百颗卫星之一,它支持偏远和农村地区的宽带接入,增强全球数字连接。该星座由多家国际企业与政府合作推进,致力于实现全球覆盖和低延迟通信。

基本信息
目录编号:
55807
目录名称:
ONEWEB-0643
国际标识:
2023-029M
轨道中心:
EARTH
卫星名称:
一网星座-0643星
卫星全名:
一网星座-0643星 (ONEWEB-0643)
卫星状态:
在轨 (已飞行1013 天)
发射日期:
2023-03-09 UTC
国别 :
英国 (GB)
星等 :
--
轨道信息
数据来源 国际轨道数据 AOE轨道数据
星历时间 2025-12-15T15:40:17+0800
18小时前
查看轨道信息
2025-12-12T04:00:00+0800
4天前
查看轨道信息
半长轴 7583.922km 7583.919km
偏心率 0.000176 0.0002086
轨道倾角 87.899° 87.900°
近地点辐角 61.642° 60.878°
升交点赤经 326.374° 327.069°
平近点角 298.488° 10.712°
近地点 1204.452km 1204.201km
远地点 1207.122km 1207.367km
周期 109.547分钟 109.547分钟
每日圈数 13.145042 13.145051
详细信息
平衡模式:
三轴稳定
覆盖范围:
全球
运营商:
一网卫星公司
运营商所在国:
英国
制造商(研发单位):
一网卫星公司
制造商所在国:
英国
使用方式:
暂无
卫星简介
OneWeb卫星网络由648颗重约125公斤的微型卫星组成,运行在1200公里的轨道上。 每颗卫星都能够提供至少每秒8千兆位的吞吐量,以使用其高吞吐量的Ku频段有效载荷为家庭和移动平台提供互联网接入。该卫星仍在工作。
2D轨道图
3D轨道图
轨道高度分析图
轨道倾角分析图
轨道综合分析图
查看轨道综合分析图